Weather History for KMBS - November, 2012

Change the Weather History Date:

Friday, November 9, 2012

  Actual Average Record
Temperature  
Mean Temperature 44 °F 41 °F  
Max Temperature 50 °F 49 °F 73 °F (1999)
Min Temperature 39 °F 33 °F 19 °F (2003)
Degree Days  
Heating Degree Days 20    
Month to date heating degree days  
Since 1 July heating degree days  
Cooling Degree Days 0    
Month to date cooling degree days  
Year to date cooling degree days  
Moisture  
Dew Point 36 °F    
Average Humidity 76    
Maximum Humidity 86    
Minimum Humidity 66    
Precipitation  
Precipitation 0.00 in 0.09 in 0.64 in (2000)
Month to date precipitation 0.83  
Year to date precipitation 27.81  
Snow  
Snow 0.00 in - - ()
Month to date snowfall  
Since 1 July snowfall  
Since 1 September snowfall  
Snow Depth -    
Sea Level Pressure  
Sea Level Pressure 30.15 in    
Wind  
Wind Speed 6 mph (South)    
Max Wind Speed 8 mph    
Max Gust Speed -    
Visibility 6 miles    
Events      
T = Trace of Precipitation, MM = Missing Value Source: NWS Daily Summary

Daily Weather History Graph

Daily Weather History Graph

Search for Another Location

Airport or City:

Trip Planner

Search our weather history database for the weather conditions in past years. The results will help you decide how hot, cold, wet, or windy it might be!

Date:

Astronomy

Nov. 09, 2012 Rise Set
Actual Time 7:22 AM EST 5:16 PM EST
Civil Twilight 6:52 AM EST 5:47 PM EST
Nautical Twilight 6:18 AM EST 6:21 PM EST
Astronomical Twilight 5:44 AM EST 6:55 PM EST
Moon 2:12 AM EST (11/9) 2:36 PM EST (11/9)
Length of Visible Light 10h 54m
Length of Day
9h 54m
Waning Crescent, 23% of the Moon is Illuminated
Nov 9
Waning Crescent
Nov 13
New
Nov 20
First Quarter
Nov 28
Full
Dec 6
Last Quarter

Hourly Weather History & Observations

Time (EST) Temp. Windchill Dew Point Humidity Pressure Visibility Wind Dir Wind Speed Gust Speed Precip Events Conditions
12:53 AM 39.0 °F 34.0 °F 33.1 °F 79% 30.14 in 5.0 mi SW 6.9 mph - N/A   Haze
1:53 AM 39.0 °F 34.8 °F 33.1 °F 79% 30.15 in 5.0 mi SW 5.8 mph - N/A   Haze
2:53 AM 39.0 °F 34.0 °F 33.1 °F 79% 30.16 in 5.0 mi SW 6.9 mph - N/A   Haze
3:04 AM 39.2 °F 34.2 °F 33.8 °F 81% 30.14 in 5.0 mi SW 6.9 mph - N/A   Haze
3:41 AM 39.2 °F 35.0 °F 33.8 °F 81% 30.13 in 5.0 mi SSW 5.8 mph - N/A   Haze
3:53 AM 39.0 °F 34.0 °F 33.1 °F 79% 30.15 in 5.0 mi SSW 6.9 mph - N/A   Haze
4:53 AM 39.0 °F 33.4 °F 33.1 °F 79% 30.16 in 5.0 mi SW 8.1 mph - N/A   Haze
5:53 AM 39.9 °F 35.1 °F 34.0 °F 79% 30.16 in 6.0 mi SW 6.9 mph - N/A   Haze
6:53 AM 39.9 °F 36.7 °F 34.0 °F 79% 30.16 in 6.0 mi SSW 4.6 mph - N/A   Haze
7:53 AM 39.9 °F 36.7 °F 34.0 °F 79% 30.17 in 5.0 mi SSW 4.6 mph - N/A   Haze
8:53 AM 41.0 °F 36.4 °F 34.0 °F 76% 30.18 in 5.0 mi SSW 6.9 mph - N/A   Haze
9:53 AM 43.0 °F 38.8 °F 35.1 °F 74% 30.18 in 5.0 mi SW 6.9 mph - N/A   Haze
10:53 AM 44.1 °F 40.8 °F 36.0 °F 73% 30.18 in 5.0 mi SSW 5.8 mph - N/A   Haze
11:53 AM 45.0 °F 42.6 °F 37.0 °F 74% 30.18 in 5.0 mi SW 4.6 mph - N/A   Haze
12:53 PM 46.9 °F - 37.9 °F 71% 30.14 in 6.0 mi SSE 5.8 mph - N/A   Haze
1:53 PM 48.9 °F - 37.9 °F 66% 30.14 in 6.0 mi SSE 3.5 mph - N/A   Haze
2:53 PM 50.0 °F - 39.0 °F 66% 30.13 in 6.0 mi NE 3.5 mph - N/A   Haze
3:53 PM 50.0 °F - 39.0 °F 66% 30.12 in 6.0 mi East 5.8 mph - N/A   Haze
4:53 PM 48.0 °F - 39.0 °F 71% 30.11 in 6.0 mi ENE 6.9 mph - N/A   Haze
5:53 PM 46.9 °F - 39.0 °F 74% 30.12 in 6.0 mi ENE 5.8 mph - N/A   Haze
6:53 PM 46.9 °F - 39.0 °F 74% 30.12 in 7.0 mi East 6.9 mph - N/A   Overcast
7:53 PM 46.9 °F - 39.0 °F 74% 30.14 in 7.0 mi ENE 6.9 mph - N/A   Overcast
8:53 PM 46.0 °F 41.9 °F 39.0 °F 76% 30.14 in 6.0 mi NE 8.1 mph - N/A   Haze
9:53 PM 44.6 °F 41.4 °F 39.2 °F 81% 30.13 in 5.0 mi ENE 5.8 mph - N/A   Haze
10:53 PM 45.0 °F 42.6 °F 39.0 °F 80% 30.14 in 5.0 mi ENE 4.6 mph - N/A   Haze
11:53 PM 43.0 °F 38.2 °F 39.0 °F 86% 30.14 in 4.0 mi NE 8.1 mph - N/A   Mostly Cloudy